CZ-6A DEB

Satellite information

Favourite Embed

Satellite Type and Status

DEBRISIN ORBIT

Key statistics

Satellite CZ-6A DEB at a glance.

Uptime

969

Days in orbit

Revolutions

≈ 13.3

Per day

Orbit

SSO

Sun Synchronous Orbit

Inclination

99.0

Latest

Satellite identification and parameters

Extended collection of information and parameters for CZ-6A DEB.

Object identification

Identified? True

Debris? True

Object name: CZ-6A DEB

International designator: 2022-151H

Object number (NORAD): 54266

Object ID (CCSDS): 54266

Country: PEOPLES REPUBLIC OF CHINA (PRC)

Current information (Y/N): Y

RCS size: SMALL

Orbital parameters

Period: 108.009 minutes

Inclination: 99.0315 deg

SMA: 7512.78 km

Apoapsis: 1443.987 km

Periapsis: 825.302 km

RAAN: 93.4928 deg

Eccentricy: 0.0411755

Argument of periapsis: 195.3799 deg

Mean anomaly: 163.4497 deg

Mean motion: 13.33219933 rev/day

Mean motion (dot): 0.0000016 rev/day2

B* drag term: 0.00025005 1/REarth

Two-line elements (TLE)

Creation date: July 6, 2025, 10:56 p.m.

Reference frame: TEME

Reference center: EARTH

Epoch: July 6, 2025, 5:19 p.m. UTC

TLE line 0: 0 CZ-6A DEB

TLE line 1: 1 54266U 22151H 25187.72190812 .00000160 00000-0 25005-3 0 9999

TLE line 2: 2 54266 99.0315 93.4928 0411755 195.3799 163.4497 13.33219933128870

Live tracking on map

Real-time ground track for satellite CZ-6A DEB.

In-orbit conjunctions

A list of the most updated potential collisions computed for object CZ-6A DEB.

Target Orbit TCA Probability of collision Miss distance Type
METEOR 3-2 LEO 2024-09-19 15:38:06 0.0009164493 67.0 (m) PAYLOAD
SL-8 R/B LEO 2024-07-04 22:22:27 0.0001709008 62.0 (m) ROCKET BODY

Associated space launch

Chinese satellite reported for atmospheric/ocean/environmental/spatial parameter research purposes, details TBD.

CZ-6A DEB was lifted into orbit during the mission ‘Long March 6A | Yunhai 3’, on board a Long March 6A space rocket.

The launch took place on Nov. 11, 2022, 10:52 p.m. from Launch Complex 9A.

For more information about the launch, click the button.

Launch to space Long March 6A | Yunhai 3
Long March 6A | Yunhai 3

Agency: N/A

Status: Launch Successful

Launch date: Nov. 11, 2022, 10:52 p.m. UTC

Rocket: Long March 6A

Launch pad: Launch Complex 9A

Location: Taiyuan Satellite Launch Center, People's Republic of China

...

Latest news about this satellite

There are no fresh news available about this satellite. Check back as we update our databases every day.


Newsletter sign-up

Weekly statistics, charts and insights to help you stay on top of the space industry.